SWA548 KBWI-KBOS

Flight info

Callsign SWA548
Flight time 1h 4m
Altitude 39000
Route DUKPN1 BROSS Q419 JFK ROBUC3
Aircraft B38M/M-SDE1FGHILORVWXY/HB1

Departure

Time 2026-05-06 00:23
Airport Baltimore/Washington International Thurgood Marshall Airport (KBWI)

Arrival

Time 2026-05-06 01:27
Airport Boston Logan International Airport (KBOS)
Time Latitude Longitude Altitude Speed Heading
2026-05-05 23:46 39.17677 -76.67023 158 ft 0 kts 89°
2026-05-05 23:47 39.17678 -76.67015 158 ft 0 kts 88°
2026-05-06 00:11 39.17677 -76.67037 158 ft 4 kts 89°
2026-05-06 00:11 39.17677 -76.67071 158 ft 4 kts 92°
2026-05-06 00:12 39.17680 -76.67106 158 ft 4 kts 104°
2026-05-06 00:12 39.17691 -76.67134 158 ft 3 kts 141°
2026-05-06 00:12 39.17693 -76.67136 158 ft 0 kts 144°
2026-05-06 00:15 39.17691 -76.67134 158 ft 1 kts 143°
2026-05-06 00:15 39.17670 -76.67115 158 ft 7 kts 143°
2026-05-06 00:15 39.17617 -76.67065 158 ft 12 kts 144°
2026-05-06 00:16 39.17549 -76.66973 158 ft 16 kts 117°
2026-05-06 00:16 39.17531 -76.66827 158 ft 18 kts 93°
2026-05-06 00:16 39.17525 -76.66663 157 ft 19 kts 96°
2026-05-06 00:16 39.17548 -76.66546 157 ft 12 kts 40°
2026-05-06 00:17 39.17562 -76.66448 156 ft 13 kts 121°
2026-05-06 00:17 39.17510 -76.66343 153 ft 15 kts 124°
2026-05-06 00:17 39.17466 -76.66246 151 ft 11 kts 104°
2026-05-06 00:17 39.17454 -76.66149 151 ft 12 kts 96°
2026-05-06 00:18 39.17447 -76.66032 150 ft 14 kts 95°
2026-05-06 00:18 39.17438 -76.65900 148 ft 15 kts 94°
2026-05-06 00:18 39.17432 -76.65769 144 ft 15 kts 94°
2026-05-06 00:18 39.17427 -76.65677 144 ft 7 kts 94°
2026-05-06 00:19 39.17424 -76.65616 144 ft 7 kts 93°
2026-05-06 00:19 39.17410 -76.65546 144 ft 8 kts 124°
2026-05-06 00:19 39.17377 -76.65524 143 ft 3 kts 175°
2026-05-06 00:19 39.17375 -76.65524 143 ft 0 kts 177°
2026-05-06 00:21 39.17374 -76.65524 143 ft 1 kts 177°
2026-05-06 00:21 39.17351 -76.65523 143 ft 8 kts 179°
2026-05-06 00:22 39.17280 -76.65565 143 ft 12 kts 256°
2026-05-06 00:22 39.17286 -76.65673 143 ft 20 kts 274°
2026-05-06 00:22 39.17319 -76.66255 150 ft 109 kts 274°
2026-05-06 00:22 39.17383 -76.67560 231 ft 176 kts 272°
2026-05-06 00:23 39.17513 -76.69303 836 ft 207 kts 272°
2026-05-06 00:23 39.17646 -76.71066 1948 ft 195 kts 268°
2026-05-06 00:23 39.17711 -76.72870 2413 ft 211 kts 261°
2026-05-06 00:23 39.17236 -76.74638 3078 ft 207 kts 231°
2026-05-06 00:24 39.16097 -76.75652 3800 ft 211 kts 201°
2026-05-06 00:24 39.14601 -76.75593 4541 ft 227 kts 168°
2026-05-06 00:24 39.13264 -76.74364 5161 ft 247 kts 143°
2026-05-06 00:24 39.12042 -76.72786 5795 ft 251 kts 144°
2026-05-06 00:25 39.10787 -76.71213 6458 ft 253 kts 144°
2026-05-06 00:25 39.09512 -76.69626 6807 ft 257 kts 144°
2026-05-06 00:25 39.08484 -76.67674 7344 ft 273 kts 116°
2026-05-06 00:25 39.08192 -76.65213 8113 ft 289 kts 93°
2026-05-06 00:26 39.08298 -76.62553 8590 ft 306 kts 90°
2026-05-06 00:26 39.08416 -76.59822 9269 ft 313 kts 89°
2026-05-06 00:26 39.08533 -76.56990 10125 ft 315 kts 89°
2026-05-06 00:26 39.08644 -76.54143 10575 ft 331 kts 89°
2026-05-06 00:27 39.08761 -76.51097 10944 ft 350 kts 89°
2026-05-06 00:27 39.08884 -76.47914 11458 ft 363 kts 89°
2026-05-06 00:27 39.09272 -76.44684 12171 ft 367 kts 72°
2026-05-06 00:27 39.10109 -76.41568 12989 ft 372 kts 71°
2026-05-06 00:28 39.10964 -76.38393 13705 ft 378 kts 71°
2026-05-06 00:28 39.11832 -76.35172 14447 ft 383 kts 71°
2026-05-06 00:28 39.12711 -76.31917 15186 ft 387 kts 71°
2026-05-06 00:28 39.13587 -76.28669 15920 ft 391 kts 71°
2026-05-06 00:29 39.14486 -76.25339 16633 ft 396 kts 71°
2026-05-06 00:29 39.15265 -76.21927 17337 ft 399 kts 82°
2026-05-06 00:29 39.15668 -76.18366 17892 ft 408 kts 84°
2026-05-06 00:29 39.16238 -76.14709 18021 ft 429 kts 70°
2026-05-06 00:30 39.17758 -76.11339 18132 ft 446 kts 48°
2026-05-06 00:30 39.19705 -76.08701 18325 ft 458 kts 48°
2026-05-06 00:30 39.21502 -76.05915 18593 ft 465 kts 50°
2026-05-06 00:30 39.23579 -76.02699 19137 ft 468 kts 50°
2026-05-06 00:31 39.25678 -75.99472 19602 ft 472 kts 50°
2026-05-06 00:31 39.27773 -75.96258 20101 ft 475 kts 49°
2026-05-06 00:31 39.29909 -75.92981 20591 ft 479 kts 50°
2026-05-06 00:31 39.32061 -75.89677 21064 ft 483 kts 50°
2026-05-06 00:32 39.34228 -75.86343 21521 ft 486 kts 50°
2026-05-06 00:32 39.36411 -75.82985 21965 ft 490 kts 50°
2026-05-06 00:32 39.38612 -75.79593 22459 ft 494 kts 50°
2026-05-06 00:32 39.40825 -75.76179 22891 ft 497 kts 50°
2026-05-06 00:33 39.43049 -75.72748 23405 ft 499 kts 50°
2026-05-06 00:33 39.45289 -75.69285 23755 ft 503 kts 49°
2026-05-06 00:33 39.47536 -75.65808 24188 ft 505 kts 49°
2026-05-06 00:33 39.49764 -75.62357 24599 ft 507 kts 49°
2026-05-06 00:34 39.52025 -75.58852 25008 ft 509 kts 49°
2026-05-06 00:34 39.54297 -75.55325 25468 ft 509 kts 49°
2026-05-06 00:34 39.56544 -75.51842 26356 ft 498 kts 49°
2026-05-06 00:34 39.58739 -75.48440 27369 ft 486 kts 48°
2026-05-06 00:35 39.60880 -75.45118 28363 ft 474 kts 48°
2026-05-06 00:35 39.62972 -75.41867 29195 ft 466 kts 47°
2026-05-06 00:35 39.65047 -75.38629 29631 ft 468 kts 47°
2026-05-06 00:35 39.67137 -75.35365 29973 ft 471 kts 47°
2026-05-06 00:36 39.69231 -75.32088 30313 ft 473 kts 47°
2026-05-06 00:36 39.71336 -75.28795 30629 ft 475 kts 47°
2026-05-06 00:36 39.73444 -75.25488 30966 ft 476 kts 46°
2026-05-06 00:36 39.75562 -75.22165 31278 ft 478 kts 46°
2026-05-06 00:37 39.77688 -75.18824 31600 ft 480 kts 46°
2026-05-06 00:37 39.79822 -75.15469 31919 ft 482 kts 46°
2026-05-06 00:37 39.81930 -75.12150 32223 ft 484 kts 46°
2026-05-06 00:37 39.84080 -75.08761 32544 ft 486 kts 46°
2026-05-06 00:38 39.86232 -75.05365 32873 ft 487 kts 46°
2026-05-06 00:38 39.88374 -75.01982 33441 ft 482 kts 45°
2026-05-06 00:38 39.90469 -74.98674 33976 ft 479 kts 45°
2026-05-06 00:38 39.92481 -74.95491 34372 ft 477 kts 45°
2026-05-06 00:39 39.94585 -74.92160 34700 ft 477 kts 45°
2026-05-06 00:39 39.96699 -74.88808 34918 ft 478 kts 45°
2026-05-06 00:39 39.98778 -74.85506 34924 ft 477 kts 45°
2026-05-06 00:40 40.02862 -74.79012 34919 ft 475 kts 45°
2026-05-06 00:40 40.06945 -74.72506 34918 ft 475 kts 45°
2026-05-06 00:41 40.11034 -74.65978 34903 ft 476 kts 45°
2026-05-06 00:41 40.15136 -74.59414 34887 ft 477 kts 45°
2026-05-06 00:42 40.19324 -74.52697 34886 ft 476 kts 45°
2026-05-06 00:42 40.23480 -74.46018 34907 ft 477 kts 45°
2026-05-06 00:43 40.27774 -74.39102 34915 ft 477 kts 45°
2026-05-06 00:43 40.31840 -74.32539 34919 ft 476 kts 46°
2026-05-06 00:44 40.36000 -74.25810 34921 ft 475 kts 46°
2026-05-06 00:44 40.40156 -74.19073 34889 ft 475 kts 46°
2026-05-06 00:45 40.44259 -74.12407 34882 ft 475 kts 46°
2026-05-06 00:45 40.48377 -74.05703 34903 ft 477 kts 46°
2026-05-06 00:46 40.52542 -73.98906 34890 ft 477 kts 46°
2026-05-06 00:46 40.56696 -73.92114 34903 ft 477 kts 46°
2026-05-06 00:47 40.60872 -73.85270 34906 ft 480 kts 46°
2026-05-06 00:47 40.62938 -73.81879 34426 ft 475 kts 46°
2026-05-06 00:47 40.64991 -73.78504 33535 ft 480 kts 47°
2026-05-06 00:47 40.67074 -73.75074 32606 ft 484 kts 47°
2026-05-06 00:48 40.69180 -73.71604 31718 ft 487 kts 48°
2026-05-06 00:48 40.71269 -73.68159 30859 ft 489 kts 49°
2026-05-06 00:48 40.73395 -73.64649 30018 ft 491 kts 49°
2026-05-06 00:48 40.75519 -73.61143 29378 ft 490 kts 49°
2026-05-06 00:49 40.77646 -73.57622 28883 ft 492 kts 49°
2026-05-06 00:49 40.79787 -73.54077 28260 ft 495 kts 49°
2026-05-06 00:49 40.81905 -73.50565 27715 ft 493 kts 49°
2026-05-06 00:49 40.84035 -73.47029 27152 ft 491 kts 49°
2026-05-06 00:50 40.86039 -73.43858 26933 ft 487 kts 45°
2026-05-06 00:50 40.88325 -73.40544 26886 ft 488 kts 45°
2026-05-06 00:50 40.90595 -73.37207 26878 ft 489 kts 46°
2026-05-06 00:50 40.92096 -73.34988 26890 ft 489 kts 46°
2026-05-06 00:51 40.95045 -73.30611 26527 ft 482 kts 46°
2026-05-06 00:51 40.97119 -73.27529 26010 ft 476 kts 46°
2026-05-06 00:51 40.99303 -73.24278 25487 ft 471 kts 46°
2026-05-06 00:51 41.01463 -73.21060 25025 ft 464 kts 46°
2026-05-06 00:52 41.03576 -73.17909 24800 ft 452 kts 46°
2026-05-06 00:52 41.05639 -73.14830 24584 ft 441 kts 46°
2026-05-06 00:52 41.07650 -73.11825 24365 ft 431 kts 46°
2026-05-06 00:52 41.09617 -73.08883 24158 ft 422 kts 46°
2026-05-06 00:53 41.11546 -73.05996 23944 ft 414 kts 46°
2026-05-06 00:53 41.13392 -73.03229 23730 ft 410 kts 46°
2026-05-06 00:53 41.15302 -73.00364 23526 ft 411 kts 46°
2026-05-06 00:53 41.17196 -72.97522 23268 ft 410 kts 47°
2026-05-06 00:54 41.19080 -72.94691 23024 ft 409 kts 46°
2026-05-06 00:54 41.20915 -72.91819 22916 ft 407 kts 53°
2026-05-06 00:54 41.22279 -72.88518 22920 ft 408 kts 62°
2026-05-06 00:54 41.23575 -72.85167 22897 ft 408 kts 61°
2026-05-06 00:55 41.24859 -72.81841 22773 ft 400 kts 62°
2026-05-06 00:55 41.26104 -72.78595 22657 ft 389 kts 62°
2026-05-06 00:55 41.27315 -72.75431 22668 ft 384 kts 62°
2026-05-06 00:55 41.28546 -72.72207 22648 ft 398 kts 62°
2026-05-06 00:56 41.29790 -72.68946 22657 ft 404 kts 62°
2026-05-06 00:56 41.31068 -72.65589 22683 ft 408 kts 62°
2026-05-06 00:56 41.32354 -72.62209 22689 ft 410 kts 62°
2026-05-06 00:56 41.33638 -72.58832 22679 ft 409 kts 62°
2026-05-06 00:57 41.34922 -72.55448 22684 ft 409 kts 62°
2026-05-06 00:57 41.36205 -72.52065 22683 ft 409 kts 62°
2026-05-06 00:57 41.37485 -72.48684 22680 ft 409 kts 62°
2026-05-06 00:57 41.38764 -72.45302 22678 ft 409 kts 62°
2026-05-06 00:58 41.40043 -72.41917 22679 ft 409 kts 62°
2026-05-06 00:58 41.41321 -72.38531 22679 ft 409 kts 62°
2026-05-06 00:58 41.42597 -72.35144 22677 ft 409 kts 62°
2026-05-06 00:58 41.43874 -72.31754 22676 ft 409 kts 62°
2026-05-06 00:59 41.45147 -72.28367 22669 ft 409 kts 62°
2026-05-06 00:59 41.46404 -72.25022 22663 ft 409 kts 62°
2026-05-06 00:59 41.47675 -72.21632 22652 ft 409 kts 62°
2026-05-06 00:59 41.48926 -72.18222 22505 ft 409 kts 62°
2026-05-06 01:00 41.50174 -72.14817 22254 ft 408 kts 62°
2026-05-06 01:00 41.51414 -72.11432 21919 ft 405 kts 62°
2026-05-06 01:00 41.52650 -72.08055 21575 ft 404 kts 63°
2026-05-06 01:00 41.53878 -72.04698 21239 ft 402 kts 63°
2026-05-06 01:01 41.55100 -72.01353 20904 ft 400 kts 63°
2026-05-06 01:01 41.56173 -71.97990 20542 ft 398 kts 68°
2026-05-06 01:01 41.57199 -71.94574 20224 ft 395 kts 68°
2026-05-06 01:01 41.58230 -71.91182 19911 ft 394 kts 67°
2026-05-06 01:02 41.59265 -71.87791 19568 ft 394 kts 68°
2026-05-06 01:02 41.60268 -71.84401 19206 ft 392 kts 68°
2026-05-06 01:02 41.61263 -71.81027 18900 ft 388 kts 68°
2026-05-06 01:02 41.62246 -71.77698 18582 ft 385 kts 69°
2026-05-06 01:03 41.63232 -71.74358 18259 ft 386 kts 69°
2026-05-06 01:03 41.64201 -71.71071 17961 ft 384 kts 69°
2026-05-06 01:03 41.65177 -71.67754 17684 ft 383 kts 69°
2026-05-06 01:03 41.66150 -71.64445 17370 ft 381 kts 69°
2026-05-06 01:04 41.67113 -71.61167 17062 ft 376 kts 69°
2026-05-06 01:04 41.68062 -71.57933 16721 ft 372 kts 69°
2026-05-06 01:04 41.69001 -71.54723 16408 ft 368 kts 69°
2026-05-06 01:04 41.69926 -71.51561 16122 ft 363 kts 69°
2026-05-06 01:05 41.70839 -71.48436 15823 ft 359 kts 69°
2026-05-06 01:05 41.71733 -71.45369 15536 ft 359 kts 69°
2026-05-06 01:05 41.72733 -71.42313 15200 ft 359 kts 60°
2026-05-06 01:05 41.74001 -71.39451 14904 ft 355 kts 59°
2026-05-06 01:06 41.75231 -71.36595 14627 ft 353 kts 60°
2026-05-06 01:06 41.76444 -71.33728 14340 ft 354 kts 60°
2026-05-06 01:06 41.77646 -71.30859 14033 ft 352 kts 60°
2026-05-06 01:06 41.78846 -71.28010 13717 ft 349 kts 59°
2026-05-06 01:07 41.80052 -71.25198 13361 ft 347 kts 59°
2026-05-06 01:07 41.81243 -71.22406 13081 ft 347 kts 59°
2026-05-06 01:07 41.82357 -71.19789 12826 ft 347 kts 60°
2026-05-06 01:07 41.83491 -71.17121 12541 ft 345 kts 59°
2026-05-06 01:08 41.84675 -71.14336 12256 ft 341 kts 60°
2026-05-06 01:08 41.85849 -71.11594 12001 ft 337 kts 59°
2026-05-06 01:08 41.87017 -71.08899 11778 ft 331 kts 59°
2026-05-06 01:08 41.88164 -71.06246 11594 ft 328 kts 59°
2026-05-06 01:09 41.89308 -71.03598 11415 ft 329 kts 59°
2026-05-06 01:09 41.90453 -71.00944 11215 ft 328 kts 59°
2026-05-06 01:09 41.91592 -70.98300 11022 ft 327 kts 59°
2026-05-06 01:09 41.92713 -70.95696 10820 ft 326 kts 59°
2026-05-06 01:10 41.93845 -70.93064 10633 ft 325 kts 59°
2026-05-06 01:10 41.94973 -70.90441 10437 ft 324 kts 59°
2026-05-06 01:10 41.96088 -70.87843 10222 ft 318 kts 59°
2026-05-06 01:10 41.97179 -70.85296 10043 ft 311 kts 59°
2026-05-06 01:11 41.98253 -70.82792 9879 ft 310 kts 59°
2026-05-06 01:11 41.98965 -70.81132 9748 ft 309 kts 59°
2026-05-06 01:11 42.00037 -70.78629 9552 ft 309 kts 59°
2026-05-06 01:11 42.01142 -70.76153 9340 ft 308 kts 52°
2026-05-06 01:12 42.02533 -70.73978 9059 ft 307 kts 45°
2026-05-06 01:12 42.03974 -70.71867 8849 ft 307 kts 45°
2026-05-06 01:12 42.05408 -70.69744 8645 ft 306 kts 46°
2026-05-06 01:12 42.06836 -70.67615 8432 ft 306 kts 46°
2026-05-06 01:13 42.08158 -70.65637 8267 ft 306 kts 46°
2026-05-06 01:13 42.09481 -70.63657 8098 ft 305 kts 45°
2026-05-06 01:13 42.10893 -70.62068 7870 ft 300 kts 24°
2026-05-06 01:13 42.12831 -70.61180 7598 ft 293 kts
2026-05-06 01:14 42.16747 -70.60006 7136 ft 286 kts
2026-05-06 01:14 42.18653 -70.59456 6836 ft 285 kts
2026-05-06 01:14 42.20588 -70.58906 6517 ft 284 kts
2026-05-06 01:15 42.22538 -70.58358 6235 ft 290 kts
2026-05-06 01:15 42.24510 -70.57806 5940 ft 294 kts
2026-05-06 01:15 42.26494 -70.57246 5651 ft 296 kts
2026-05-06 01:15 42.28490 -70.56689 5391 ft 294 kts
2026-05-06 01:16 42.30428 -70.56167 5155 ft 292 kts
2026-05-06 01:16 42.32358 -70.56417 5027 ft 270 kts 331°
2026-05-06 01:16 42.33905 -70.57702 5028 ft 257 kts 311°
2026-05-06 01:16 42.35251 -70.59293 5029 ft 257 kts 310°
2026-05-06 01:17 42.36572 -70.60919 5019 ft 257 kts 309°
2026-05-06 01:17 42.37880 -70.62572 5002 ft 259 kts 308°
2026-05-06 01:17 42.39172 -70.64233 5012 ft 256 kts 308°
2026-05-06 01:17 42.40440 -70.65877 5010 ft 253 kts 308°
2026-05-06 01:18 42.41674 -70.67483 5002 ft 239 kts 307°
2026-05-06 01:18 42.42833 -70.68999 5014 ft 226 kts 307°
2026-05-06 01:18 42.43986 -70.70431 5007 ft 227 kts 313°
2026-05-06 01:18 42.45277 -70.71682 4909 ft 229 kts 315°
2026-05-06 01:19 42.46583 -70.72892 4593 ft 226 kts 316°
2026-05-06 01:19 42.47866 -70.74069 4229 ft 219 kts 316°
2026-05-06 01:19 42.49126 -70.75204 3861 ft 215 kts 316°
2026-05-06 01:19 42.50345 -70.76294 3502 ft 211 kts 316°
2026-05-06 01:20 42.51571 -70.77375 3159 ft 209 kts 316°
2026-05-06 01:20 42.52785 -70.78429 3002 ft 207 kts 315°
2026-05-06 01:20 42.53632 -70.79695 3025 ft 163 kts 282°
2026-05-06 01:20 42.53898 -70.81139 3102 ft 155 kts 269°
2026-05-06 01:21 42.53870 -70.82589 3072 ft 159 kts 258°
2026-05-06 01:21 42.53727 -70.84123 3026 ft 167 kts 258°
2026-05-06 01:21 42.53589 -70.85712 3021 ft 172 kts 258°
2026-05-06 01:21 42.53454 -70.87325 3021 ft 172 kts 259°
2026-05-06 01:22 42.53328 -70.88881 3009 ft 159 kts 259°
2026-05-06 01:22 42.53213 -70.90319 2984 ft 153 kts 259°
2026-05-06 01:22 42.52865 -70.91644 2928 ft 152 kts 231°
2026-05-06 01:22 42.52013 -70.92507 2884 ft 154 kts 218°
2026-05-06 01:23 42.51072 -70.93198 2737 ft 153 kts 213°
2026-05-06 01:23 42.50113 -70.93791 2569 ft 150 kts 211°
2026-05-06 01:23 42.49162 -70.94315 2440 ft 145 kts 210°
2026-05-06 01:23 42.48229 -70.94801 2251 ft 142 kts 209°
2026-05-06 01:24 42.47326 -70.95252 2060 ft 138 kts 208°
2026-05-06 01:24 42.46426 -70.95697 1880 ft 138 kts 207°
2026-05-06 01:24 42.45512 -70.96144 1726 ft 140 kts 206°
2026-05-06 01:24 42.44590 -70.96593 1532 ft 141 kts 206°
2026-05-06 01:25 42.43691 -70.97044 1359 ft 131 kts 205°
2026-05-06 01:25 42.42826 -70.97447 1156 ft 131 kts 204°
2026-05-06 01:25 42.41974 -70.97869 1053 ft 132 kts 204°
2026-05-06 01:25 42.41115 -70.98305 991 ft 133 kts 202°
2026-05-06 01:26 42.40233 -70.98695 783 ft 133 kts 199°
2026-05-06 01:26 42.39346 -70.99110 546 ft 143 kts 201°
2026-05-06 01:26 42.38430 -70.99568 358 ft 137 kts 199°
2026-05-06 01:26 42.37562 -70.99984 100 ft 127 kts 200°
2026-05-06 01:27 42.36804 -71.00360 28 ft 93 kts 199°
2026-05-06 01:27 42.36421 -71.00545 28 ft 36 kts 201°
2026-05-06 01:27 42.36200 -71.00660 28 ft 24 kts 210°
2026-05-06 01:27 42.36150 -71.00799 28 ft 17 kts 278°
2026-05-06 01:28 42.36188 -71.00932 28 ft 13 kts 294°
2026-05-06 01:28 42.36229 -71.01055 28 ft 16 kts 294°
2026-05-06 01:28 42.36280 -71.01196 28 ft 18 kts 298°
2026-05-06 01:28 42.36333 -71.01312 28 ft 10 kts 302°
2026-05-06 01:29 42.36359 -71.01382 28 ft 8 kts 273°
2026-05-06 01:29 42.36328 -71.01435 28 ft 4 kts 206°
2026-05-06 01:29 42.36326 -71.01437 28 ft 0 kts 205°
2026-05-06 01:30 42.36318 -71.01441 28 ft 3 kts 202°
2026-05-06 01:30 42.36305 -71.01458 28 ft 3 kts 262°
2026-05-06 01:30 42.36314 -71.01511 28 ft 8 kts 289°
2026-05-06 01:30 42.36322 -71.01542 28 ft 1 kts 291°
2026-05-06 01:31 42.36323 -71.01542 28 ft 0 kts 291°
2026-05-06 01:31 42.36324 -71.01548 28 ft 0 kts 290°